Location: Fort Wayne
(41.1310°N, 85.1290°W)
Time: 16:24:53
(UTC-04:00)

Daily predictions for brighter satellites

Satellite Brightness Start Highest point End
(mag) Time Altitude Azimuth Time Altitude Azimuth Time Altitude Azimuth
Thor Agena Rocket 4.0 19:48:28 10° NNE 19:53:24 40° E 19:58:14 10° SSE
Cosmos 1758 Rocket 3.6 19:49:47 10° N 19:54:17 70° E 19:58:45 10° SSE
Cosmos 2084 3.3 19:51:12 10° SW 19:55:18 86° NW 19:59:13 10° NE
Cosmos 1726 Rocket 3.5 19:53:25 10° S 19:57:45 72° E 20:02:05 10° NNE
USA 234 3.7 19:53:37 10° SE 20:00:08 69° SW 20:06:41 10° NW
CZ-4 R/B 3.8 19:56:49 10° SSW 20:00:29 30° W 20:04:14 10° NW
ALOS 2.3 19:57:36 10° SSE 20:02:12 62° ENE 20:06:49 10° N
BREEZE M DEB (TANK) 3.9 19:53:10 10° WNW 20:02:56 59° NNE 20:06:14 10° E
Cosmos 2181 Rocket 4.0 19:57:19 10° N 20:03:32 78° E 20:09:39 10° S
Cosmos 990 Rocket 4.0 20:00:10 10° NNW 20:05:22 87° WSW 20:10:30 10° SSE
Cosmos 1898 Rocket 4.4 20:00:35 10° NNW 20:05:38 54° WSW 20:10:39 10° S
Cosmos 1814 Rocket 4.2 20:00:58 10° SSW 20:06:08 79° WNW 20:11:18 10° NNE
SJ 16-02 3.0 20:03:27 10° NNE 20:06:18 17° ENE 20:09:06 10° E
Cosmos 1656 Rocket 3.7 20:01:07 10° NNW 20:06:45 67° ENE 20:12:16 10° SSE
NOAA 12 4.1 20:01:58 10° SSE 20:07:12 80° ENE 20:12:29 10° N
SJ-6B 3.7 20:04:49 10° SE 20:08:18 30° ENE 20:11:44 10° N
SPOT 3 Rocket 4.0 20:03:37 10° S 20:08:44 69° WSW 20:13:54 10° NNW
FENGYUN 3A 3.6 20:05:34 10° SSE 20:10:53 73° ENE 20:16:16 10° N
Cosmos 1953 4.2 20:11:47 11° E 20:12:32 11° E 20:13:46 10° ENE
H-2A R/B 3.2 20:09:58 10° SE 20:13:24 36° ENE 20:16:53 10° N
Cosmos 2074 Rocket 4.1 20:08:47 10° SSE 20:14:45 52° E 20:20:44 10° NNE
Cosmos 1125 Rocket 4.2 20:11:23 10° N 20:16:16 36° ENE 20:21:08 10° SE
FREGAT/IRIS 2.7 20:16:49 10° SSE 20:19:46 52° ENE 20:22:44 10° N
Cosmos 2228 3.0 20:15:28 10° S 20:19:50 84° E 20:24:11 10° N
Cosmos 1356 Rocket 3.5 20:18:07 10° N 20:22:24 63° ENE 20:26:40 10° SSE
Geosat 4.0 20:19:08 10° SE 20:24:08 74° ENE 20:29:09 10° NNW
Envisat 4.2 20:21:01 12° ESE 20:24:18 22° ENE 20:28:09 10° NNE
Cosmos 1544 3.5 20:22:07 10° SSE 20:25:28 37° E 20:28:50 10° NNE
ATLAS 2AS CENTAUR R/B 4.2 20:24:47 10° NNW 20:31:22 26° NNE 20:36:22 14° E
COSMOS 2406 3.2 20:27:16 10° SSW 20:32:55 71° ESE 20:38:39 10° NNE
Cosmos 1378 4.1 20:29:18 10° NNW 20:32:59 51° W 20:36:38 10° S
Cosmos 1707 3.9 20:29:15 10° NNW 20:33:02 47° W 20:36:48 10° SSW
Meteor 1-22 Rocket 4.1 20:28:13 10° S 20:33:51 68° E 20:39:18 10° NNE
Meteor 2-5 Rocket 4.2 20:30:46 10° NNW 20:36:35 69° W 20:42:14 10° S
Cosmos 1766 3.1 20:33:14 10° S 20:37:08 68° E 20:41:01 10° NNE
USA 81 4.4 20:32:06 10° N 20:37:22 69° W 20:42:36 10° S
Cosmos 1812 Rocket 4.0 20:33:58 10° SSE 20:38:08 41° E 20:42:20 10° NNE
Meteor 2-8 Rocket 4.5 20:32:56 10° N 20:38:58 57° E 20:44:56 10° SSE
Cosmos 841 Rocket 4.0 20:34:35 10° SSW 20:39:40 61° WNW 20:44:46 10° NNE
In-Cosmos 22 4.2 20:34:18 10° N 20:39:59 66° E 20:45:42 10° SSE
Resurs 01 Rocket 2.3 20:38:07 17° SE 20:40:52 34° ENE 20:44:52 10° N
NOSS 3-1 (A) 4.1 20:33:47 10° NW 20:41:30 90° ENE 20:49:59 10° SSE
Cosmos 1674 4.0 20:39:04 10° NNE 20:41:52 21° ENE 20:41:52 21° ENE
GP-B 3.7 20:38:24 10° NNE 20:42:28 34° E 20:46:08 12° SSE
Nadezhda 3 Rocket 4.3 20:38:06 10° N 20:44:06 44° ENE 20:49:59 10° SSE
MOS 1-B Rocket 4.4 20:40:08 12° SE 20:45:15 40° ENE 20:50:27 10° N
Cosmos 2058 Rocket 4.3 20:42:02 10° SSW 20:46:13 45° WNW 20:50:26 10° N
FengYun 1-2 T 4.3 20:41:55 10° SSE 20:47:32 86° WSW 20:53:08 10° NNW
NOSS 3-1 (C) 4.5 20:41:51 10° NW 20:49:29 65° WSW 20:57:50 10° SSE
SL-27 R/B 2.8 20:47:10 10° S 20:50:35 41° ESE 20:54:02 10° NNE
Meteor 2-19 Rocket 4.4 20:45:23 10° S 20:51:17 59° E 20:57:14 10° NNE
Cosmos 540 Rocket 3.4 20:47:24 10° SSW 20:52:30 87° ESE 20:57:39 10° NNE
Cosmos 2184 Rocket 4.1 20:47:20 10° S 20:53:39 82° W 21:00:04 10° N
Cosmos 1758 3.6 20:53:13 10° SSE 20:57:01 43° E 21:00:50 10° NNE
Elektron 1 4.0 20:53:59 10° NNW 20:57:09 49° NE 20:57:32 45° ENE
HJ-1C 3.7 20:55:08 10° S 20:58:27 67° WSW 21:01:49 10° NNW
Cosmos 1610 Rocket 4.5 20:52:33 10° S 20:58:54 79° E 21:05:19 10° N
Okean 3 Rocket 4.1 21:03:59 10° N 21:08:04 37° ENE 21:08:04 37° ENE
Cosmos 1805 3.2 21:05:03 10° S 21:08:57 86° W 21:12:52 10° N
Cosmos 1939 Rocket 3.8 21:13:42 31° NE 21:13:42 31° NE 21:16:25 10° N
SL-8 Rocket 4.4 21:14:55 35° E 21:15:24 35° E 21:20:54 10° NNE
CZ-2D R/B 3.3 21:13:42 25° S 21:15:47 76° WSW 21:19:37 10° NNW
Cosmos 292 Rocket 3.7 21:11:34 10° S 21:16:22 67° ESE 21:21:12 10° NNE
Cosmos 2278 4.1 21:13:53 10° N 21:19:14 41° ENE 21:20:04 38° E
Spot 2 Rocket 3.4 21:28:02 32° SSE 21:30:26 86° WSW 21:35:30 10° NNW
ISS -2.8 21:27:49 10° WSW 21:30:17 45° W 21:30:17 45° W
Milstar 3 Cent rocket 3.6 21:27:45 10° SW 21:30:39 18° S 21:30:39 18° S
BREEZE-M DEB (TANK) 4.3 21:31:13 10° NW 21:31:29 12° NW 21:31:29 12° NW
Cosmos 962 Rocket 4.4 21:27:21 10° S 21:33:42 83° E 21:40:06 10° N
Cosmos 1656 4.0 21:30:19 10° NNW 21:35:46 45° ENE 21:35:48 45° ENE
Cosmos 1697 Rocket 3.5 21:33:52 10° N 21:38:32 34° NE 21:38:32 34° NE
Cosmos 1980 Rocket 3.7 21:36:22 10° N 21:39:51 21° NE 21:39:51 21° NE
Cosmos 1076 Rocket 4.1 21:39:52 10° N 21:43:06 48° N 21:43:06 48° N
SJ 16-02 2.2 21:40:57 10° NNW 21:45:10 47° WSW 21:46:15 38° SW
Cosmos 1953 3.1 21:47:22 39° SW 21:48:26 51° W 21:52:24 10° N
ERS-1 Rocket 4.4 21:52:12 25° NNE 21:52:12 25° NNE 21:54:40 10° N
SJ-11-01 4.5 21:57:06 69° NW 21:57:06 69° NW 22:01:19 10° NNW
Envisat 3.9 22:01:14 33° SSW 22:03:00 45° W 22:07:53 10° NNW
SL-16 R/B 4.4 22:05:43 10° NNE 22:07:07 13° NNE 22:07:07 13° NNE
FALCON 9 R/B 3.4 22:13:18 10° WSW 22:15:43 33° SW 22:15:43 33° SW
Resurs 01 Rocket 3.9 22:15:42 18° SW 22:17:24 22° W 22:20:50 10° NW
ATLAS 2AS CENTAUR R/B 2.8 22:15:32 10° NW 22:23:36 85° NE 22:23:48 83° E
H-2A R/B 4.1 22:28:14 17° N 22:28:14 17° N 22:29:32 10° N
Cosmos 2369 4.4 22:23:44 10° NNW 22:28:37 51° W 22:28:37 51° W
Cosmos 2366 rocket 4.4 22:34:13 57° NNW 22:34:13 57° NNW 22:39:15 10° N
Cosmos 2218 Rocket 4.4 22:38:40 58° NW 22:38:40 58° NW 22:44:13 10° N
Cosmos 2322 Rocket 4.5 23:10:04 10° N 23:11:28 17° N 23:11:28 17° N
Cosmos 1980 Rocket 4.3 23:19:35 10° NNW 23:21:38 23° NW 23:21:38 23° NW
